Location: Barletta
(41.3170°N, 16.2830°E)
Time: 01:44:38
(UTC+02:00)

ISS - Pass Details

Date: 19 May 2021
Orbit: 417 x 422 km, 51.6° (Epoch: 14 June)

Event Time Altitude Azimuth Distance (km) Brightness Sun altitude
Rises 22:06:02 0° 281° (W) 2,361 0.9 -17.7°
Reaches altitude 10° 22:08:38 10° 302° (WNW) 1,500 0.2 -18.1°
Maximum altitude 22:10:59 17° 347° (NNW) 1,129 -0.8 -18.3°
Drops below altitude 10° 22:13:20 10° 31° (NNE) 1,504 -0.7 -18.6°
Sets 22:15:57 0° 52° (NE) 2,371 0.1 -18.9°
